Time,TemperatureF,DewpointF,PressureIn,WindDirection,WindDirectionDegrees,WindSpeedMPH,WindSpeedGustMPH,Humidity,HourlyPrecipIn,Conditions,Clouds,dailyrainin,SoftwareType,DateUTC
2013-03-26 00:00:00,30.3,24.3,29.79,ENE,68,2.0,3.5,78,0.00,,---,0.00,VWS V12.08,2013-03-26 04:00:00,
2013-03-26 00:20:00,30.5,24.5,29.78,SW,225,3.5,3.5,78,0.00,,---,12.76,VWS V12.08,2013-03-26 04:20:00,
2013-03-26 00:33:00,30.5,24.5,29.78,SW,225,3.5,0.0,78,0.00,,---,12.76,VWS V12.08,2013-03-26 04:33:00,
2013-03-26 00:40:00,30.5,24.5,29.78,SW,225,3.5,3.5,78,0.00,,---,12.76,VWS V12.08,2013-03-26 04:40:00,
2013-03-26 00:52:00,30.2,24.5,29.78,ESE,112,3.1,0.0,79,0.00,,---,12.76,VWS V12.08,2013-03-26 04:52:00,
2013-03-26 01:01:00,30.2,24.5,29.78,East,90,0.0,3.5,79,0.00,,---,12.76,VWS V12.08,2013-03-26 05:01:00,
2013-03-26 01:17:00,30.0,24.3,29.78,ENE,68,3.3,3.3,79,0.00,,---,12.76,VWS V12.08,2013-03-26 05:17:00,
2013-03-26 01:20:00,30.0,24.6,29.78,ENE,68,3.3,3.3,80,0.00,,---,12.76,VWS V12.08,2013-03-26 05:20:00,
2013-03-26 01:33:00,30.2,24.8,29.78,SE,135,4.6,0.0,80,0.00,,---,12.76,VWS V12.08,2013-03-26 05:33:00,
2013-03-26 01:40:00,30.2,24.8,29.78,SE,135,4.6,4.6,80,0.00,,---,12.76,VWS V12.08,2013-03-26 05:40:00,
2013-03-26 01:52:00,30.2,24.8,29.78,ENE,68,0.0,0.0,80,0.00,,---,12.76,VWS V12.08,2013-03-26 05:52:00,
2013-03-26 02:01:00,30.2,24.8,29.79,WSW,248,0.0,4.6,80,0.00,,---,12.76,VWS V12.08,2013-03-26 06:01:00,
2013-03-26 02:26:00,30.3,24.9,29.79,ESE,112,0.0,3.8,80,0.00,,---,12.76,VWS V12.08,2013-03-26 06:26:00,
2013-03-26 02:31:00,30.3,25.2,29.78,ENE,68,0.0,3.5,81,0.00,,---,12.76,VWS V12.08,2013-03-26 06:31:00,
2013-03-26 02:40:00,30.2,25.1,29.79,SE,135,2.0,3.5,81,0.00,,---,12.76,VWS V12.08,2013-03-26 06:40:00,
2013-03-26 02:56:00,30.0,24.9,29.79,NE,45,3.5,0.0,81,0.00,,---,12.76,VWS V12.08,2013-03-26 06:56:00,
2013-03-26 03:01:00,30.0,24.9,29.79,NNW,338,0.0,0.0,81,0.00,,---,12.76,VWS V12.08,2013-03-26 07:01:00,
2013-03-26 03:26:00,30.0,24.9,29.78,East,90,3.3,3.3,81,0.00,,---,12.76,VWS V12.08,2013-03-26 07:26:00,
2013-03-26 03:31:00,30.0,24.9,29.78,NNW,338,3.1,5.8,81,0.00,,---,12.76,VWS V12.08,2013-03-26 07:31:00,
2013-03-26 03:40:00,30.0,24.6,29.78,ENE,68,4.2,5.8,80,0.00,,---,12.76,VWS V12.08,2013-03-26 07:40:00,
2013-03-26 03:56:00,30.0,24.3,29.78,South,180,0.0,0.0,79,0.00,,---,12.76,VWS V12.08,2013-03-26 07:56:00,
2013-03-26 04:01:00,30.0,24.3,29.79,NNW,338,4.6,4.6,79,0.00,,---,12.76,VWS V12.08,2013-03-26 08:01:00,
2013-03-26 04:26:00,30.2,24.5,29.79,NE,45,4.2,4.6,79,0.00,,---,12.76,VWS V12.08,2013-03-26 08:26:00,
2013-03-26 04:31:00,30.3,24.6,29.78,NNE,22,0.0,5.1,79,0.00,,---,12.76,VWS V12.08,2013-03-26 08:31:00,
2013-03-26 04:40:00,30.2,24.5,29.78,ENE,68,0.0,5.1,79,0.00,,---,12.76,VWS V12.08,2013-03-26 08:40:00,
2013-03-26 04:56:00,30.3,24.3,29.79,ENE,68,0.0,0.0,78,0.00,,---,12.76,VWS V12.08,2013-03-26 08:56:00,
2013-03-26 05:01:00,30.3,24.3,29.79,ENE,68,0.0,3.5,78,0.00,,---,12.76,VWS V12.08,2013-03-26 09:01:00,
2013-03-26 05:26:00,30.3,24.6,29.79,ENE,68,2.4,2.9,79,0.00,,---,12.76,VWS V12.08,2013-03-26 09:26:00,
2013-03-26 05:47:00,30.5,24.8,29.79,NE,45,2.2,2.9,79,0.00,,---,12.76,VWS V12.08,2013-03-26 09:47:00,
2013-03-26 06:08:00,30.3,24.6,29.79,ESE,112,0.0,2.4,79,0.00,,---,12.76,VWS V12.08,2013-03-26 10:08:00,
2013-03-26 06:16:00,30.3,24.6,29.79,NE,45,0.0,0.0,79,0.00,,---,12.76,VWS V12.08,2013-03-26 10:16:00,
2013-03-26 06:20:00,30.2,24.5,29.79,ENE,68,0.0,1.5,79,0.00,,---,12.76,VWS V12.08,2013-03-26 10:20:00,
2013-03-26 06:33:00,30.2,24.8,29.79,WNW,292,0.0,0.0,80,0.00,,---,12.76,VWS V12.08,2013-03-26 10:33:00,
2013-03-26 06:40:00,30.0,24.6,29.79,NW,315,0.0,1.1,80,0.00,,---,12.76,VWS V12.08,2013-03-26 10:40:00,
2013-03-26 06:52:00,30.0,24.9,29.79,ENE,68,1.5,0.0,81,0.00,,---,12.76,VWS V12.08,2013-03-26 10:52:00,
2013-03-26 07:01:00,30.0,24.9,29.80,SW,225,2.9,2.9,81,0.00,,---,12.76,VWS V12.08,2013-03-26 11:01:00,
2013-03-26 07:16:00,30.0,24.9,29.80,North,0,0.0,2.9,81,0.00,,---,12.76,VWS V12.08,2013-03-26 11:16:00,
2013-03-26 07:20:00,30.0,24.9,29.80,West,270,0.0,2.9,81,0.00,,---,12.76,VWS V12.08,2013-03-26 11:20:00,
2013-03-26 07:31:00,30.0,24.9,29.81,ENE,68,0.0,3.3,81,0.00,,---,12.76,VWS V12.08,2013-03-26 11:31:00,
2013-03-26 07:46:00,30.0,24.9,29.81,North,0,0.0,3.3,81,0.00,,---,12.76,VWS V12.08,2013-03-26 11:46:00,
2013-03-26 08:01:00,30.0,25.2,29.82,ENE,68,0.0,0.6,82,0.00,,---,12.76,VWS V12.08,2013-03-26 12:01:00,
2013-03-26 08:16:00,30.0,24.9,29.82,North,0,2.9,2.9,81,0.00,,---,12.76,VWS V12.08,2013-03-26 12:16:00,
2013-03-26 08:20:00,30.0,24.9,29.82,ENE,68,1.3,2.9,81,0.00,,---,12.76,VWS V12.08,2013-03-26 12:20:00,
2013-03-26 08:31:00,30.2,25.1,29.83,NNE,22,0.0,0.0,81,0.00,,---,12.76,VWS V12.08,2013-03-26 12:31:00,
2013-03-26 08:46:00,30.3,25.2,29.83,NW,315,0.0,1.3,81,0.00,,---,12.76,VWS V12.08,2013-03-26 12:46:00,
2013-03-26 09:01:00,30.5,25.1,29.85,ESE,112,2.6,2.6,80,0.00,,---,12.76,VWS V12.08,2013-03-26 13:01:00,
2013-03-26 09:16:00,30.7,25.0,29.85,East,90,0.0,2.6,79,0.00,,---,12.76,VWS V12.08,2013-03-26 13:16:00,
2013-03-26 09:31:00,30.9,24.9,29.87,SSE,158,4.2,4.2,78,0.00,,---,12.76,VWS V12.08,2013-03-26 13:31:00,
2013-03-26 09:46:00,30.7,24.7,29.86,NNW,338,0.0,4.2,78,0.00,,---,12.76,VWS V12.08,2013-03-26 13:46:00,
2013-03-26 10:01:00,30.7,24.7,29.86,NNW,338,0.0,0.0,78,0.00,,---,12.76,VWS V12.08,2013-03-26 14:01:00,
2013-03-26 10:16:00,31.6,25.9,29.88,ENE,68,2.6,2.6,79,0.00,,---,12.76,VWS V12.08,2013-03-26 14:16:00,
2013-03-26 10:20:00,31.6,25.9,29.88,East,90,0.0,2.6,79,0.00,,---,12.76,VWS V12.08,2013-03-26 14:20:00,
2013-03-26 10:31:00,31.8,26.0,29.88,SSW,202,0.0,0.0,79,0.00,,---,12.76,VWS V12.08,2013-03-26 14:31:00,
2013-03-26 10:46:00,32.0,26.2,29.89,East,90,0.0,0.0,79,0.00,,---,12.76,VWS V12.08,2013-03-26 14:46:00,
2013-03-26 11:01:00,31.8,26.0,29.89,ENE,68,0.0,0.0,79,0.00,,---,12.76,VWS V12.08,2013-03-26 15:01:00,
2013-03-26 11:20:00,32.7,26.9,29.90,East,90,0.0,0.0,79,0.00,,---,12.76,VWS V12.08,2013-03-26 15:20:00,
2013-03-26 11:31:00,33.2,27.4,29.90,ENE,68,0.0,0.0,79,0.00,,---,12.76,VWS V12.08,2013-03-26 15:31:00,
2013-03-26 11:46:00,32.9,26.5,29.90,ESE,112,1.5,1.5,77,0.00,,---,12.76,VWS V12.08,2013-03-26 15:46:00,
2013-03-26 12:01:00,32.9,26.5,29.90,ENE,68,0.0,1.5,77,0.00,,---,12.76,VWS V12.08,2013-03-26 16:01:00,
2013-03-26 12:20:00,32.9,26.2,29.91,NE,45,4.6,4.6,76,0.00,,---,12.76,VWS V12.08,2013-03-26 16:20:00,
2013-03-26 12:46:00,33.9,26.8,29.91,NE,45,0.0,4.6,75,0.00,,---,12.76,VWS V12.08,2013-03-26 16:46:00,
2013-03-26 13:01:00,33.6,26.9,29.92,NE,45,0.0,4.6,76,0.00,,---,12.76,VWS V12.08,2013-03-26 17:01:00,
2013-03-26 13:20:00,33.9,26.8,29.92,NE,45,3.1,3.8,75,0.00,,---,12.76,VWS V12.08,2013-03-26 17:20:00,
2013-03-26 13:31:00,34.1,27.0,29.92,ENE,68,0.0,3.1,75,0.00,,---,12.76,VWS V12.08,2013-03-26 17:31:00,
2013-03-26 13:46:00,33.9,26.8,29.92,ENE,68,0.0,0.2,75,0.00,,---,12.76,VWS V12.08,2013-03-26 17:46:00,
2013-03-26 14:01:00,34.3,27.2,29.92,East,90,0.0,0.0,75,0.00,,---,12.76,VWS V12.08,2013-03-26 18:01:00,
2013-03-26 14:16:00,34.5,27.4,29.92,ENE,68,1.3,2.9,75,0.00,,---,12.76,VWS V12.08,2013-03-26 18:16:00,
2013-03-26 14:20:00,34.7,27.6,29.92,SW,225,0.0,2.9,75,0.00,,---,12.76,VWS V12.08,2013-03-26 18:20:00,
2013-03-26 14:31:00,34.8,27.7,29.92,SE,135,0.0,0.4,75,0.00,,---,12.76,VWS V12.08,2013-03-26 18:31:00,
2013-03-26 14:46:00,34.8,27.0,29.93,NW,315,0.0,0.0,73,0.00,,---,12.76,VWS V12.08,2013-03-26 18:46:00,
2013-03-26 15:01:00,35.4,27.6,29.93,WNW,292,0.0,3.8,73,0.00,,---,12.76,VWS V12.08,2013-03-26 19:01:00,
2013-03-26 15:16:00,35.7,27.6,29.92,SSE,158,0.0,0.0,72,0.00,,---,12.76,VWS V12.08,2013-03-26 19:16:00,
2013-03-26 15:20:00,35.7,27.2,29.92,East,90,0.0,0.0,71,0.00,,---,12.76,VWS V12.08,2013-03-26 19:20:00,
2013-03-26 15:31:00,35.7,27.2,29.92,ENE,68,3.3,0.0,71,0.00,,---,12.76,VWS V12.08,2013-03-26 19:31:00,
2013-03-26 15:46:00,35.7,27.2,29.92,ENE,68,0.0,6.2,71,0.00,,---,12.76,VWS V12.08,2013-03-26 19:46:00,
2013-03-26 16:01:00,35.7,26.5,29.92,NE,45,3.1,3.1,69,0.00,,---,12.76,VWS V12.08,2013-03-26 20:01:00,
2013-03-26 16:20:00,34.8,25.7,29.93,East,90,0.0,5.3,69,0.00,,---,12.76,VWS V12.08,2013-03-26 20:20:00,
2013-03-26 16:31:00,34.8,25.7,29.93,ENE,68,0.0,0.0,69,0.00,,---,12.76,VWS V12.08,2013-03-26 20:31:00,
2013-03-26 16:46:00,34.8,25.7,29.93,North,0,1.1,1.7,69,0.00,,---,12.76,VWS V12.08,2013-03-26 20:46:00,
2013-03-26 17:01:00,34.8,25.7,29.93,North,0,1.1,1.7,69,0.00,,---,12.76,VWS V12.08,2013-03-26 21:01:00,
2013-03-26 17:16:00,34.7,25.6,29.94,NE,45,0.0,1.1,69,0.00,,---,12.76,VWS V12.08,2013-03-26 21:16:00,
2013-03-26 17:20:00,34.5,25.4,29.94,ENE,68,0.0,1.1,69,0.00,,---,12.76,VWS V12.08,2013-03-26 21:20:00,
2013-03-26 17:31:00,34.3,25.2,29.94,NNW,338,0.0,0.0,69,0.00,,---,12.76,VWS V12.08,2013-03-26 21:31:00,
2013-03-26 17:46:00,34.3,25.5,29.94,SSE,158,0.0,0.0,70,0.00,,---,12.76,VWS V12.08,2013-03-26 21:46:00,
2013-03-26 18:01:00,34.1,25.4,29.94,East,90,0.0,1.5,70,0.00,,---,12.76,VWS V12.08,2013-03-26 22:01:00,
2013-03-26 18:20:00,34.3,25.5,29.95,ENE,68,0.0,5.3,70,0.00,,---,12.76,VWS V12.08,2013-03-26 22:20:00,
2013-03-26 18:49:00,34.3,25.5,29.95,NNE,22,0.0,4.4,70,0.00,,---,12.76,VWS V12.08,2013-03-26 22:49:00,
2013-03-26 19:06:00,33.9,25.2,29.96,East,90,0.0,4.9,70,0.00,,---,12.76,VWS V12.08,2013-03-26 23:06:00,
2013-03-26 19:24:00,33.9,25.2,29.96,East,90,0.0,3.1,70,0.00,,---,12.76,VWS V12.08,2013-03-26 23:24:00,
2013-03-26 19:31:00,33.9,25.2,29.96,SE,135,0.0,4.0,70,0.00,,---,12.76,VWS V12.08,2013-03-26 23:31:00,
2013-03-26 19:49:00,33.8,24.7,29.96,ENE,68,0.0,4.0,69,0.00,,---,12.76,VWS V12.08,2013-03-26 23:49:00,
2013-03-26 20:03:00,33.8,24.7,29.97,ENE,68,0.0,2.0,69,0.00,,---,12.76,VWS V12.08,2013-03-27 00:03:00,
2013-03-26 20:16:00,33.8,24.7,29.97,ENE,68,0.0,0.0,69,0.00,,---,12.76,VWS V12.08,2013-03-27 00:16:00,
2013-03-26 20:20:00,33.8,24.7,29.97,ENE,68,0.0,0.0,69,0.00,,---,12.76,VWS V12.08,2013-03-27 00:20:00,
2013-03-26 20:31:00,33.8,24.7,29.97,ENE,68,0.0,0.0,69,0.00,,---,12.76,VWS V12.08,2013-03-27 00:31:00,
2013-03-26 20:46:00,33.8,24.7,29.97,ENE,68,0.0,0.0,69,0.00,,---,12.76,VWS V12.08,2013-03-27 00:46:00,
2013-03-26 21:01:00,33.2,24.5,29.99,NE,45,1.3,4.4,70,0.00,,---,12.76,VWS V12.08,2013-03-27 01:01:00,
2013-03-26 21:16:00,33.0,24.3,29.99,SE,135,0.0,1.3,70,0.00,,---,12.76,VWS V12.08,2013-03-27 01:16:00,
2013-03-26 21:32:00,32.9,24.5,30.00,ENE,68,0.0,0.0,71,0.00,,---,12.76,VWS V12.08,2013-03-27 01:32:00,
2013-03-26 21:46:00,32.9,24.5,30.00,East,90,0.0,0.0,71,0.00,,---,12.76,VWS V12.08,2013-03-27 01:46:00,
2013-03-26 22:01:00,32.7,24.4,30.00,WSW,248,0.0,0.0,71,0.00,,---,12.76,VWS V12.08,2013-03-27 02:01:00,
2013-03-26 22:16:00,32.3,24.3,30.01,ENE,68,0.0,0.0,72,0.00,,---,12.76,VWS V12.08,2013-03-27 02:16:00,
2013-03-26 22:20:00,32.3,24.3,30.01,SSE,158,0.0,0.0,72,0.00,,---,12.76,VWS V12.08,2013-03-27 02:20:00,
2013-03-26 22:31:00,32.1,24.1,30.01,North,0,0.0,0.0,72,0.00,,---,12.76,VWS V12.08,2013-03-27 02:31:00,
2013-03-26 22:46:00,32.1,24.1,30.01,NNW,338,1.3,3.3,72,0.00,,---,12.76,VWS V12.08,2013-03-27 02:46:00,
2013-03-26 23:01:00,31.8,24.1,30.01,ESE,112,0.0,1.3,73,0.00,,---,12.76,VWS V12.08,2013-03-27 03:01:00,
2013-03-26 23:19:00,31.8,24.1,30.02,North,0,0.0,0.0,73,0.00,,---,12.76,VWS V12.08,2013-03-27 03:19:00,
2013-03-26 23:20:00,31.8,24.1,30.02,North,0,0.0,0.0,73,0.00,,---,12.76,VWS V12.08,2013-03-27 03:20:00,
2013-03-26 23:34:00,31.8,24.1,30.01,East,90,0.0,0.0,73,0.00,,---,12.76,VWS V12.08,2013-03-27 03:34:00,
2013-03-26 23:40:00,31.8,24.1,30.02,North,0,0.0,4.6,73,0.00,,---,12.76,VWS V12.08,2013-03-27 03:40:00,
2013-03-26 23:54:00,31.6,24.3,30.02,ENE,68,0.0,1.1,74,0.00,,---,12.76,VWS V12.08,2013-03-27 03:54:00,